| << 28.7. | 30.7. >> |
|
Windrichtung in Grad |
Windgeschw. in m/s |
Windspitzen in m/s |
Temp.Minima in °C |
Temperatur in °C |
Temp.Maxima in °C |
Luftfeuchte in % |
Luftdruck in hPa |
Taupunkt in °C |
Niederschlag in mm |
|
|---|---|---|---|---|---|---|---|---|---|---|
| ▲ Maxima | 1,4 | 4,1 | 35,5 | 35,7 | 36,2 | 70,2 | 1006,8 | 14,3 | 0,0 | |
| Ø Mittelwert | 145,8 | 0,7 | 1,8 | 25,5 | 25,8 | 26,1 | 45,1 | 1003,8 | 12,6 | 0,0 |
| ▼ Minima | 0,1 | 0,3 | 16,3 | 16,5 | 16,6 | 24,5 | 1001,4 | 11,2 | 0,0 | |
| ∑ Summe | 0,0 |
| Uhrzeit (MEZ) | Windrichtung in Grad | Windgeschw. in m/s | Windspitzen in m/s | Temp.Minima in °C | Temperatur in °C | Temp.Maxima in °C | Luftfeuchte in % | Luftdruck in hPa | Taupunkt in °C | Niederschlag in mm |
|---|---|---|---|---|---|---|---|---|---|---|
| 00:00 | 205,9 | 0,2 | 0,5 | 19,1 | 19,2 | 19,4 | 60,6 | 1006,8 | 12,8 | 0,0 |
| 00:10 | 183,1 | 0,1 | 0,5 | 19,1 | 19,1 | 19,3 | 61,0 | 1006,7 | 12,8 | 0,0 |
| 00:20 | 143,9 | 0,1 | 0,5 | 19,1 | 19,1 | 19,2 | 61,1 | 1006,6 | 12,9 | 0,0 |
| 00:30 | 156,3 | 0,2 | 1,0 | 19,0 | 19,1 | 19,3 | 60,9 | 1006,5 | 12,8 | 0,0 |
| 00:40 | 132,2 | 0,4 | 1,1 | 18,9 | 19,0 | 19,2 | 61,1 | 1006,5 | 12,7 | 0,0 |
| 00:50 | 124,6 | 0,6 | 1,7 | 18,7 | 19,0 | 19,2 | 61,3 | 1006,4 | 12,6 | 0,0 |
| 01:00 | 149,4 | 0,4 | 1,4 | 18,5 | 18,7 | 19,0 | 62,2 | 1006,4 | 12,6 | 0,0 |
| 01:10 | 161,9 | 0,3 | 0,9 | 18,4 | 18,5 | 18,6 | 62,7 | 1006,4 | 12,6 | 0,0 |
| 01:20 | 180,7 | 0,3 | 1,0 | 18,2 | 18,3 | 18,5 | 63,5 | 1006,4 | 12,7 | 0,0 |
| 01:30 | 158,7 | 0,2 | 0,8 | 18,2 | 18,3 | 18,5 | 63,5 | 1006,4 | 12,7 | 0,0 |
| 01:40 | 116,9 | 0,2 | 0,7 | 18,1 | 18,2 | 18,4 | 64,4 | 1006,3 | 12,8 | 0,0 |
| 01:50 | 183,1 | 0,1 | 0,5 | 17,9 | 18,0 | 18,1 | 64,1 | 1006,3 | 12,5 | 0,0 |
| 02:00 | 130,5 | 0,3 | 0,8 | 17,8 | 17,9 | 18,1 | 63,6 | 1006,2 | 12,3 | 0,0 |
| 02:10 | 124,1 | 0,4 | 1,6 | 17,9 | 18,0 | 18,3 | 63,3 | 1006,2 | 12,3 | 0,0 |
| 02:20 | 135,3 | 0,4 | 1,6 | 17,8 | 17,9 | 18,2 | 63,3 | 1006,2 | 12,2 | 0,0 |
| 02:30 | 131,7 | 0,6 | 1,3 | 17,6 | 17,8 | 18,1 | 64,1 | 1006,0 | 12,2 | 0,0 |
| 02:40 | 120,5 | 0,7 | 1,5 | 17,5 | 17,8 | 18,0 | 64,8 | 1005,9 | 12,3 | 0,0 |
| 02:50 | 132,6 | 0,6 | 1,5 | 17,5 | 17,6 | 17,9 | 65,7 | 1005,8 | 12,5 | 0,0 |
| 03:00 | 155,6 | 0,4 | 1,3 | 17,3 | 17,4 | 17,7 | 66,6 | 1005,8 | 12,6 | 0,0 |
| 03:10 | 291,5 | 0,1 | 0,5 | 17,2 | 17,3 | 17,4 | 66,9 | 1005,7 | 12,6 | 0,0 |
| 03:20 | 165,6 | 0,1 | 0,8 | 17,2 | 17,2 | 17,4 | 67,1 | 1005,7 | 12,6 | 0,0 |
| 03:30 | 193,9 | 0,2 | 0,6 | 17,1 | 17,2 | 17,3 | 67,3 | 1005,7 | 12,5 | 0,0 |
| 03:40 | 252,9 | 0,2 | 0,5 | 16,6 | 16,8 | 17,1 | 69,0 | 1005,7 | 12,6 | 0,0 |
| 03:50 | 269,7 | 0,1 | 0,3 | 16,5 | 16,6 | 16,7 | 70,2 | 1005,7 | 12,7 | 0,0 |
| 04:00 | 199,9 | 0,2 | 0,5 | 16,4 | 16,5 | 16,6 | 70,2 | 1005,7 | 12,5 | 0,0 |
| 04:10 | 187,0 | 0,4 | 1,0 | 16,3 | 16,5 | 16,6 | 69,2 | 1005,6 | 12,3 | 0,0 |
| 04:20 | 173,6 | 0,4 | 0,9 | 16,4 | 16,6 | 16,8 | 68,0 | 1005,7 | 12,1 | 0,0 |
| 04:30 | 148,9 | 0,4 | 1,1 | 16,7 | 16,8 | 16,9 | 67,3 | 1005,6 | 12,1 | 0,0 |
| 04:40 | 123,9 | 0,3 | 0,9 | 16,7 | 16,8 | 16,9 | 67,2 | 1005,6 | 12,1 | 0,0 |
| 04:50 | 129,6 | 0,4 | 1,3 | 16,6 | 16,7 | 16,9 | 67,2 | 1005,6 | 12,1 | 0,0 |
| 05:00 | 137,6 | 0,4 | 1,1 | 16,5 | 16,6 | 16,7 | 67,2 | 1005,5 | 11,9 | 0,0 |
| 05:10 | 131,2 | 0,6 | 1,8 | 16,5 | 16,6 | 16,8 | 67,2 | 1005,5 | 11,9 | 0,0 |
| 05:20 | 126,4 | 0,7 | 1,7 | 16,5 | 16,7 | 16,9 | 66,8 | 1005,4 | 11,8 | 0,0 |
| 05:30 | 120,3 | 0,6 | 1,6 | 16,7 | 16,9 | 17,2 | 65,9 | 1005,4 | 11,9 | 0,0 |
| 05:40 | 127,7 | 0,8 | 2,2 | 17,0 | 17,3 | 17,6 | 65,3 | 1005,3 | 12,0 | 0,0 |
| 05:50 | 113,6 | 0,6 | 1,7 | 17,3 | 17,5 | 17,8 | 64,7 | 1005,3 | 12,1 | 0,0 |
| 06:00 | 136,1 | 0,5 | 1,7 | 17,6 | 17,9 | 18,4 | 63,9 | 1005,3 | 12,3 | 0,0 |
| 06:10 | 129,7 | 0,6 | 1,6 | 18,0 | 18,2 | 18,5 | 63,3 | 1005,2 | 12,5 | 0,0 |
| 06:20 | 121,8 | 0,5 | 1,4 | 18,2 | 18,6 | 19,0 | 62,4 | 1005,2 | 12,6 | 0,0 |
| 06:30 | 118,2 | 0,6 | 2,0 | 18,8 | 18,9 | 19,3 | 61,5 | 1005,1 | 12,7 | 0,0 |
| 06:40 | 122,8 | 0,7 | 2,5 | 18,8 | 19,0 | 19,4 | 61,4 | 1005,1 | 12,7 | 0,0 |
| 06:50 | 117,1 | 0,8 | 2,0 | 19,0 | 19,2 | 19,4 | 61,4 | 1005,0 | 12,8 | 0,0 |
| 07:00 | 185,7 | 0,6 | 1,5 | 19,2 | 19,4 | 19,8 | 61,2 | 1005,0 | 13,0 | 0,0 |
| 07:10 | 156,5 | 0,5 | 1,9 | 19,7 | 20,0 | 20,5 | 59,3 | 1005,0 | 13,1 | 0,0 |
| 07:20 | 150,0 | 0,7 | 1,8 | 20,4 | 20,7 | 21,0 | 57,1 | 1004,9 | 13,1 | 0,0 |
| 07:30 | 153,6 | 0,6 | 1,6 | 20,9 | 21,2 | 21,6 | 55,5 | 1004,8 | 13,1 | 0,0 |
| 07:40 | 151,2 | 0,6 | 1,6 | 21,5 | 21,7 | 22,2 | 53,1 | 1004,8 | 12,9 | 0,0 |
| 07:50 | 130,0 | 0,8 | 3,1 | 22,1 | 22,3 | 22,6 | 51,2 | 1004,8 | 12,7 | 0,0 |
| Uhrzeit (MEZ) | Windrichtung in Grad | Windgeschw. in m/s | Windspitzen in m/s | Temp.Minima in °C | Temperatur in °C | Temp.Maxima in °C | Luftfeuchte in % | Luftdruck in hPa | Taupunkt in °C | Niederschlag in mm |
|---|---|---|---|---|---|---|---|---|---|---|
| 08:00 | 123,2 | 0,9 | 3,2 | 22,4 | 22,6 | 22,9 | 50,3 | 1004,8 | 12,7 | 0,0 |
| 08:10 | 167,3 | 0,8 | 2,5 | 22,7 | 23,1 | 23,5 | 49,3 | 1004,8 | 12,8 | 0,0 |
| 08:20 | 108,4 | 0,8 | 3,3 | 23,1 | 23,5 | 24,0 | 47,9 | 1004,8 | 12,8 | 0,0 |
| 08:30 | 144,2 | 0,9 | 3,0 | 23,6 | 23,9 | 24,2 | 46,7 | 1004,8 | 12,6 | 0,0 |
| 08:40 | 135,3 | 0,9 | 3,4 | 24,0 | 24,4 | 24,8 | 45,5 | 1004,7 | 12,7 | 0,0 |
| 08:50 | 182,3 | 0,9 | 2,2 | 24,2 | 24,6 | 25,0 | 44,8 | 1004,7 | 12,7 | 0,0 |
| 09:00 | 126,3 | 0,9 | 2,6 | 24,6 | 24,8 | 25,1 | 44,5 | 1004,7 | 12,7 | 0,0 |
| 09:10 | 129,6 | 0,9 | 3,9 | 24,9 | 25,3 | 25,6 | 43,6 | 1004,7 | 12,8 | 0,0 |
| 09:20 | 111,1 | 0,9 | 2,6 | 25,2 | 25,6 | 26,0 | 42,9 | 1004,6 | 12,8 | 0,0 |
| 09:30 | 154,2 | 0,9 | 3,2 | 25,8 | 26,0 | 26,3 | 42,0 | 1004,5 | 12,8 | 0,0 |
| 09:40 | 54,5 | 0,9 | 2,5 | 25,9 | 26,5 | 27,0 | 41,4 | 1004,5 | 13,0 | 0,0 |
| 09:50 | 108,3 | 0,9 | 2,5 | 26,4 | 26,8 | 27,2 | 40,7 | 1004,5 | 13,0 | 0,0 |
| 10:00 | 82,1 | 0,9 | 2,7 | 27,1 | 27,3 | 27,6 | 39,7 | 1004,5 | 13,0 | 0,0 |
| 10:10 | 76,0 | 0,8 | 3,3 | 27,2 | 27,6 | 28,0 | 38,9 | 1004,5 | 13,0 | 0,0 |
| 10:20 | 12,1 | 0,7 | 1,6 | 27,9 | 28,2 | 28,4 | 37,3 | 1004,4 | 12,8 | 0,0 |
| 10:30 | 37,9 | 0,9 | 2,5 | 28,0 | 28,4 | 28,8 | 36,5 | 1004,4 | 12,7 | 0,0 |
| 10:40 | 109,1 | 0,9 | 2,5 | 28,1 | 28,7 | 29,2 | 35,4 | 1004,3 | 12,4 | 0,0 |
| 10:50 | 126,0 | 0,7 | 2,7 | 28,8 | 29,1 | 29,6 | 34,5 | 1004,2 | 12,3 | 0,0 |
| 11:00 | 67,6 | 0,7 | 2,7 | 29,1 | 29,4 | 29,8 | 34,0 | 1004,2 | 12,3 | 0,0 |
| 11:10 | 50,1 | 1,4 | 2,8 | 29,2 | 29,6 | 30,0 | 34,0 | 1004,2 | 12,4 | 0,0 |
| 11:20 | 107,0 | 0,9 | 2,3 | 29,3 | 29,7 | 30,2 | 33,4 | 1004,1 | 12,3 | 0,0 |
| 11:30 | 98,2 | 0,7 | 2,1 | 29,5 | 30,0 | 30,4 | 32,8 | 1004,0 | 12,2 | 0,0 |
| 11:40 | 77,8 | 1,0 | 2,6 | 30,2 | 30,6 | 31,0 | 31,5 | 1004,0 | 12,0 | 0,0 |
| 11:50 | 145,2 | 1,0 | 2,8 | 30,2 | 30,8 | 31,2 | 30,6 | 1003,9 | 11,7 | 0,0 |
| 12:00 | 128,8 | 0,5 | 1,9 | 31,0 | 31,2 | 31,8 | 28,8 | 1003,9 | 11,2 | 0,0 |
| 12:10 | 74,4 | 0,7 | 1,9 | 31,4 | 31,5 | 31,7 | 30,0 | 1003,9 | 12,1 | 0,0 |
| 12:20 | 95,3 | 0,8 | 2,4 | 31,4 | 31,7 | 32,1 | 29,6 | 1003,8 | 12,0 | 0,0 |
| 12:30 | 57,2 | 1,3 | 2,5 | 31,1 | 31,5 | 32,0 | 30,0 | 1003,7 | 11,9 | 0,0 |
| 12:40 | 73,8 | 1,0 | 2,7 | 31,1 | 31,4 | 31,7 | 30,2 | 1003,7 | 12,0 | 0,0 |
| 12:50 | 33,2 | 1,0 | 3,2 | 30,9 | 31,6 | 32,1 | 29,8 | 1003,6 | 11,9 | 0,0 |
| 13:00 | 80,8 | 0,9 | 2,4 | 31,1 | 31,6 | 32,1 | 29,7 | 1003,4 | 11,9 | 0,0 |
| 13:10 | 24,4 | 1,2 | 3,0 | 31,6 | 31,9 | 32,2 | 29,4 | 1003,3 | 11,9 | 0,0 |
| 13:20 | 40,8 | 1,2 | 3,2 | 31,5 | 31,8 | 32,1 | 29,4 | 1003,2 | 11,9 | 0,0 |
| 13:30 | 118,8 | 0,9 | 2,4 | 31,8 | 32,4 | 32,8 | 28,9 | 1003,0 | 12,1 | 0,0 |
| 13:40 | 115,5 | 0,8 | 2,7 | 32,5 | 32,8 | 33,2 | 28,3 | 1003,0 | 12,1 | 0,0 |
| 13:50 | 93,0 | 0,6 | 1,4 | 32,5 | 32,8 | 33,1 | 28,2 | 1002,9 | 12,1 | 0,0 |
| 14:00 | 61,6 | 0,9 | 4,1 | 32,8 | 33,2 | 33,8 | 27,7 | 1002,8 | 12,1 | 0,0 |
| 14:10 | 306,0 | 0,9 | 2,5 | 32,4 | 32,8 | 33,2 | 28,8 | 1002,7 | 12,4 | 0,0 |
| 14:20 | 11,3 | 0,9 | 2,2 | 32,4 | 32,7 | 33,2 | 28,0 | 1002,6 | 11,8 | 0,0 |
| 14:30 | 48,9 | 1,2 | 2,6 | 32,3 | 32,9 | 33,4 | 28,1 | 1002,6 | 11,9 | 0,0 |
| 14:40 | 40,9 | 0,8 | 2,0 | 32,9 | 33,5 | 34,1 | 27,4 | 1002,6 | 12,1 | 0,0 |
| 14:50 | 52,3 | 1,1 | 2,9 | 33,3 | 33,7 | 34,1 | 27,3 | 1002,6 | 12,2 | 0,0 |
| 15:00 | 336,4 | 0,8 | 2,5 | 33,9 | 34,5 | 35,1 | 26,6 | 1002,5 | 12,5 | 0,0 |
| 15:10 | 317,3 | 0,5 | 1,7 | 33,9 | 34,4 | 34,9 | 26,8 | 1002,5 | 12,6 | 0,0 |
| 15:20 | 8,3 | 1,0 | 2,2 | 33,8 | 34,5 | 35,1 | 26,6 | 1002,5 | 12,5 | 0,0 |
| 15:30 | 9,3 | 1,2 | 2,6 | 33,3 | 33,6 | 34,0 | 27,4 | 1002,4 | 12,2 | 0,0 |
| 15:40 | 43,0 | 1,1 | 3,3 | 33,5 | 33,9 | 34,2 | 27,0 | 1002,4 | 12,2 | 0,0 |
| 15:50 | 185,2 | 1,0 | 3,0 | 33,9 | 34,3 | 34,6 | 26,5 | 1002,4 | 12,2 | 0,0 |
| Uhrzeit (MEZ) | Windrichtung in Grad | Windgeschw. in m/s | Windspitzen in m/s | Temp.Minima in °C | Temperatur in °C | Temp.Maxima in °C | Luftfeuchte in % | Luftdruck in hPa | Taupunkt in °C | Niederschlag in mm |
|---|---|---|---|---|---|---|---|---|---|---|
| 16:00 | 90,7 | 0,8 | 2,2 | 34,2 | 34,6 | 34,9 | 26,1 | 1002,4 | 12,2 | 0,0 |
| 16:10 | 350,6 | 1,1 | 2,5 | 33,8 | 34,2 | 34,6 | 26,2 | 1002,3 | 11,9 | 0,0 |
| 16:20 | 289,8 | 0,7 | 2,1 | 33,6 | 34,1 | 34,6 | 26,2 | 1002,2 | 11,9 | 0,0 |
| 16:30 | 321,2 | 1,0 | 2,6 | 34,0 | 34,5 | 34,9 | 26,2 | 1002,1 | 12,1 | 0,0 |
| 16:40 | 343,5 | 1,1 | 2,0 | 33,6 | 34,1 | 34,4 | 26,5 | 1002,0 | 12,0 | 0,0 |
| 16:50 | 169,6 | 0,7 | 1,9 | 33,6 | 34,3 | 34,7 | 25,9 | 1001,9 | 11,9 | 0,0 |
| 17:00 | 245,5 | 0,6 | 1,5 | 34,6 | 35,1 | 35,3 | 25,6 | 1001,8 | 12,3 | 0,0 |
| 17:10 | 258,3 | 0,5 | 1,3 | 35,0 | 35,5 | 36,0 | 25,8 | 1001,7 | 12,9 | 0,0 |
| 17:20 | 90,6 | 0,8 | 2,5 | 34,9 | 35,5 | 36,0 | 24,8 | 1001,7 | 12,1 | 0,0 |
| 17:30 | 94,4 | 0,9 | 2,2 | 34,2 | 34,6 | 35,1 | 25,4 | 1001,6 | 11,8 | 0,0 |
| 17:40 | 52,3 | 0,6 | 1,9 | 34,3 | 34,5 | 35,1 | 25,5 | 1001,5 | 11,9 | 0,0 |
| 17:50 | 84,4 | 0,5 | 1,1 | 35,0 | 35,4 | 35,7 | 24,5 | 1001,5 | 11,9 | 0,0 |
| 18:00 | 208,4 | 0,5 | 1,1 | 35,3 | 35,5 | 35,8 | 25,1 | 1001,5 | 12,4 | 0,0 |
| 18:10 | 231,1 | 0,4 | 1,2 | 35,5 | 35,7 | 35,9 | 25,6 | 1001,5 | 12,9 | 0,0 |
| 18:20 | 350,6 | 0,6 | 1,9 | 34,8 | 35,5 | 36,2 | 25,5 | 1001,5 | 12,6 | 0,0 |
| 18:30 | 334,6 | 0,4 | 2,0 | 34,5 | 34,8 | 35,3 | 26,1 | 1001,4 | 12,5 | 0,0 |
| 18:40 | 341,3 | 0,5 | 2,1 | 34,1 | 34,5 | 34,8 | 27,0 | 1001,4 | 12,8 | 0,0 |
| 18:50 | 341,2 | 0,6 | 1,4 | 33,4 | 34,0 | 34,6 | 28,7 | 1001,5 | 13,4 | 0,0 |
| 19:00 | 274,3 | 0,6 | 1,3 | 32,6 | 33,0 | 33,6 | 29,7 | 1001,5 | 13,2 | 0,0 |
| 19:10 | 244,1 | 0,5 | 1,1 | 32,1 | 32,4 | 32,8 | 30,7 | 1001,5 | 13,3 | 0,0 |
| 19:20 | 320,5 | 0,5 | 1,9 | 31,9 | 32,1 | 32,7 | 30,8 | 1001,6 | 13,0 | 0,0 |
| 19:30 | 314,3 | 0,5 | 1,2 | 31,3 | 31,6 | 31,9 | 31,7 | 1001,5 | 13,1 | 0,0 |
| 19:40 | 241,0 | 0,7 | 1,3 | 30,2 | 30,8 | 31,3 | 33,3 | 1001,6 | 13,2 | 0,0 |
| 19:50 | 225,8 | 0,8 | 1,3 | 29,4 | 29,9 | 30,2 | 34,8 | 1001,7 | 13,1 | 0,0 |
| 20:00 | 112,1 | 0,3 | 0,9 | 29,4 | 29,6 | 29,8 | 34,5 | 1001,7 | 12,9 | 0,0 |
| 20:10 | 243,8 | 0,6 | 1,1 | 29,3 | 29,7 | 29,9 | 34,7 | 1001,6 | 13,0 | 0,0 |
| 20:20 | 229,6 | 1,0 | 1,4 | 27,6 | 28,3 | 29,3 | 38,8 | 1001,7 | 13,5 | 0,0 |
| 20:30 | 227,7 | 0,8 | 1,2 | 27,1 | 27,3 | 27,6 | 40,3 | 1001,8 | 13,3 | 0,0 |
| 20:40 | 233,5 | 1,0 | 1,4 | 26,3 | 26,9 | 27,2 | 42,0 | 1001,9 | 13,6 | 0,0 |
| 20:50 | 234,5 | 1,1 | 1,4 | 25,3 | 25,7 | 26,3 | 45,1 | 1002,0 | 13,7 | 0,0 |
| 21:00 | 229,6 | 0,9 | 1,4 | 25,2 | 25,3 | 25,5 | 45,1 | 1002,1 | 13,4 | 0,0 |
| 21:10 | 231,8 | 0,9 | 1,3 | 25,0 | 25,3 | 25,5 | 45,4 | 1002,0 | 13,4 | 0,0 |
| 21:20 | 233,4 | 1,1 | 1,4 | 24,7 | 24,8 | 25,1 | 46,9 | 1002,1 | 13,5 | 0,0 |
| 21:30 | 232,1 | 0,9 | 1,4 | 24,5 | 24,6 | 24,8 | 47,0 | 1002,1 | 13,4 | 0,0 |
| 21:40 | 244,1 | 1,1 | 1,4 | 23,9 | 24,4 | 24,7 | 48,4 | 1002,2 | 13,6 | 0,0 |
| 21:50 | 238,3 | 1,1 | 1,6 | 23,6 | 23,9 | 24,3 | 48,9 | 1002,2 | 13,3 | 0,0 |
| 22:00 | 244,0 | 1,0 | 1,5 | 24,1 | 24,3 | 24,4 | 47,5 | 1002,2 | 13,3 | 0,0 |
| 22:10 | 249,5 | 1,1 | 1,5 | 23,0 | 23,6 | 24,1 | 50,9 | 1002,2 | 13,7 | 0,0 |
| 22:20 | 232,4 | 1,1 | 1,5 | 22,8 | 23,0 | 23,5 | 52,3 | 1002,3 | 13,6 | 0,0 |
| 22:30 | 245,1 | 1,3 | 1,7 | 23,1 | 23,7 | 24,0 | 50,5 | 1002,4 | 13,6 | 0,0 |
| 22:40 | 254,2 | 0,9 | 2,4 | 23,0 | 23,4 | 23,6 | 51,8 | 1002,5 | 13,9 | 0,0 |
| 22:50 | 244,5 | 1,0 | 2,2 | 23,2 | 23,6 | 24,0 | 50,9 | 1002,6 | 13,8 | 0,0 |
| 23:00 | 256,7 | 1,0 | 1,3 | 22,7 | 23,3 | 23,8 | 52,9 | 1002,6 | 14,1 | 0,0 |
| 23:10 | 251,8 | 0,8 | 1,6 | 22,5 | 22,6 | 22,7 | 55,3 | 1002,7 | 14,3 | 0,0 |
| 23:20 | 248,2 | 0,7 | 1,1 | 22,5 | 22,6 | 22,9 | 54,2 | 1002,8 | 14,0 | 0,0 |
| 23:30 | 249,2 | 0,8 | 1,2 | 22,8 | 22,9 | 23,0 | 53,3 | 1002,8 | 14,0 | 0,0 |
| 23:40 | 245,3 | 1,1 | 1,5 | 22,9 | 23,1 | 23,3 | 51,9 | 1002,7 | 13,6 | 0,0 |
| 23:50 | 247,5 | 0,9 | 1,3 | 22,5 | 22,9 | 23,3 | 53,2 | 1002,6 | 13,9 | 0,0 |
| << 28.7. | 30.7. >> |